Tracking 19717 objects as of 25-Jun-2019
HD Live streaming from Space Station
objects crossing your sky now

SL-16 DEB

Track SL-16 DEB now!
10-day predictions


NORAD ID: 43375
Int'l Code: 2007-029S
Perigee: 807.7 km
Apogee: 988.8 km
Inclination: 70.9 °
Period: 102.8 minutes
Semi major axis: 7269 km
RCS: Unknown
Launch date: June 29, 2007
Source: Commonwealth of Independent States (former USSR) (CIS)
Launch site: TYURATAM MISSILE AND SPACE COMPLEX (TTMTR)

Note: This is SATELLITE DEBRIS
aabbcc
Your satellite tracking list
Your tracking list is empty




NASA's NSSDC Master Catalog

Two Line Element Set (TLE):
1 43375U 07029S   19174.62058050  .00000473  00000-0  32518-3 0  9994
2 43375  70.9040 174.6515 0124575 147.6438 324.7265 14.00770228598080
Source of the keplerian elements: AFSPC